Location: *
(46.4833°N, 7.6667°E)
Time: 19:37:26
(UTC+00:00)

USA 186 - Pass Details

Date: 27 February 2020
Orbit: 266 x 454 km, 96.9° (Epoch: 03 April)

Event Time Altitude Azimuth Distance (km) Brightness Sun altitude
Exits shadow 19:04:18 30° 348° (NNW) 653 2.9 -20.1°
Drops below altitude 10° 19:06:01 10° 348° (NNW) 1,378 4.6 -20.4°
Sets 19:07:59 0° 349° (NNW) 2,239 5.7 -20.8°
